#timestamp,LO_Frequency,Hit,Temp,Hum 
1480060815.6,286046981.9,N,0.0,0.0
1480060835.4,286046981.4,N,0.0,0.0
1480060855.3,286046981.7,N,0.0,0.0
1480060875.1,286046981.4,N,0.0,0.0
1480060895.8,286046978.9,N,0.0,0.0
1480060915.7,286046981.2,N,0.0,0.0
1480060935.5,286046981.0,N,0.0,0.0
1480060955.4,286046982.6,N,0.0,0.0
1480060975.2,286046982.5,N,0.0,0.0
1480060995.0,286046984.6,N,0.0,0.0
1480060995.9,286046984.6,N,0.0,0.0
1480061015.8,286046984.4,N,0.0,0.0
1480061035.6,286046983.9,N,0.0,0.0
1480061055.4,286046986.4,N,0.0,0.0
1480061075.3,286046984.1,N,0.0,0.0
1480061095.1,286046986.5,N,0.0,0.0
1480061115.9,286046985.7,N,0.0,0.0
1480061135.7,286046983.7,N,0.0,0.0
1480061155.5,286046985.2,N,0.0,0.0
1480061175.4,286046982.5,N,0.0,0.0
1480061195.2,286046983.9,N,0.0,0.0
1480061215.1,286046986.2,N,0.0,0.0
1480061216.0,286046986.2,N,0.0,0.0
1480061235.8,286046986.0,N,0.0,0.0
1480061255.6,286046985.4,N,0.0,0.0
1480061275.5,286046985.6,N,0.0,0.0
1480061295.3,286046988.0,N,0.0,0.0
1480061315.1,286046985.3,N,0.0,0.0
1480061335.9,286046986.6,N,0.0,0.0
1480061355.7,286046985.3,N,0.0,0.0
1480061375.6,286046988.2,N,0.0,0.0
1480061395.4,286046987.6,N,0.0,0.0
1480061415.2,286046987.8,N,0.0,0.0
1480061435.1,286046986.9,N,0.0,0.0
1480061436.0,286046986.9,N,0.0,0.0
1480061455.8,286046989.7,N,0.0,0.0
1480061475.7,286046989.6,N,0.0,0.0
1480061495.5,286046989.7,N,0.0,0.0
1480061515.3,286046989.3,N,0.0,0.0
1480061535.2,286046991.0,N,0.0,0.0
1480061555.0,286046991.5,N,0.0,0.0
1480061555.9,286046991.5,N,0.0,0.0
1480061575.7,286046989.0,N,0.0,0.0
1480061595.6,286046989.1,N,0.0,0.0
1480061615.4,286046989.0,N,0.0,0.0
1480061635.3,286046991.2,N,0.0,0.0
1480061655.1,286046990.6,N,0.0,0.0
1480061656.0,286046990.6,N,0.0,0.0
1480061675.8,286046991.1,N,0.0,0.0
1480061695.7,286046988.6,N,0.0,0.0
1480061715.5,286046988.9,N,0.0,0.0
1480061735.4,286046989.7,N,0.0,0.0
1480061755.2,286046989.9,N,0.0,0.0
1480061775.0,286046989.4,N,0.0,0.0
1480061775.9,286046989.4,N,0.0,0.0
1480061795.8,286046989.6,N,0.0,0.0
1480061815.6,286046989.6,N,0.0,0.0
1480061835.5,286046988.6,N,0.0,0.0
1480061855.3,286046988.8,N,0.0,0.0
1480061875.1,286046991.5,N,0.0,0.0
1480061895.9,286046989.7,N,0.0,0.0
1480061915.7,286046987.4,N,0.0,0.0
1480061935.5,286046987.1,N,0.0,0.0
1480061955.4,286046990.0,N,0.0,0.0
1480061975.2,286046987.5,N,0.0,0.0
1480061995.1,286046986.9,N,0.0,0.0
1480061996.0,286046986.9,N,0.0,0.0
1480062015.8,286046987.5,N,0.0,0.0
1480062035.6,286046987.2,N,0.0,0.0
1480062055.5,286046988.9,N,0.0,0.0
1480062075.3,286046989.8,N,0.0,0.0
1480062095.1,286046989.4,N,0.0,0.0
1480062115.9,286046986.9,N,0.0,0.0
1480062135.7,286046988.1,N,0.0,0.0
1480062155.6,286046985.9,N,0.0,0.0
1480062175.4,286046986.1,N,0.0,0.0
1480062195.2,286046986.3,N,0.0,0.0
1480062215.1,286046986.6,N,0.0,0.0
1480062216.0,286046986.6,N,0.0,0.0
1480062235.8,286046986.7,N,0.0,0.0
1480062255.6,286046984.0,N,0.0,0.0
1480062275.5,286046984.2,N,0.0,0.0
1480062295.3,286046984.6,N,0.0,0.0
1480062315.2,286046982.7,N,0.0,0.0
1480062335.9,286046980.5,N,0.0,0.0
1480062355.7,286046980.8,N,0.0,0.0
1480062375.6,286046980.7,N,0.0,0.0
1480062395.4,286046981.9,N,0.0,0.0
1480062415.2,286046982.0,N,0.0,0.0
1480062435.1,286046979.2,N,0.0,0.0
1480062436.0,286046979.2,N,0.0,0.0
1480062455.8,286046979.3,N,0.0,0.0
1480062475.7,286046979.3,N,0.0,0.0
1480062495.5,286046979.8,N,0.0,0.0
1480062515.3,286046980.3,N,0.0,0.0
1480062535.2,286046980.0,N,0.0,0.0
1480062555.0,286046977.4,N,0.0,0.0
1480062555.9,286046977.4,N,0.0,0.0
1480062575.8,286046977.9,N,0.0,0.0
1480062595.6,286046978.2,N,0.0,0.0
1480062615.4,286046978.6,N,0.0,0.0
1480062635.3,286046978.4,N,0.0,0.0
1480062655.1,286046978.3,N,0.0,0.0
1480062675.9,286046976.1,N,0.0,0.0
1480062695.7,286046976.1,N,0.0,0.0
1480062715.5,286046975.8,N,0.0,0.0
1480062735.4,286046978.4,N,0.0,0.0
1480062755.2,286046978.7,N,0.0,0.0
1480062775.0,286046977.9,N,0.0,0.0
1480062775.9,286046977.9,N,0.0,0.0
1480062795.8,286046977.8,N,0.0,0.0
1480062815.6,286046978.5,N,0.0,0.0
1480062835.5,286046978.0,N,0.0,0.0
1480062855.3,286046978.2,N,0.0,0.0
1480062875.1,286046978.5,N,0.0,0.0
1480062895.9,286046975.7,N,0.0,0.0
1480062915.7,286046976.2,N,0.0,0.0
1480062935.6,286046977.1,N,0.0,0.0
1480062955.4,286046976.7,N,0.0,0.0
1480062975.2,286046974.5,N,0.0,0.0
1480062995.1,286046974.3,N,0.0,0.0
1480062996.0,286046974.3,N,0.0,0.0
1480063015.8,286046975.3,N,0.0,0.0
1480063035.6,286046975.0,N,0.0,0.0
1480063055.5,286046975.0,N,0.0,0.0
1480063075.3,286046972.9,N,0.0,0.0
1480063095.2,286046972.9,N,0.0,0.0
1480063115.9,286046973.3,N,0.0,0.0
1480063135.7,286046973.4,N,0.0,0.0
1480063155.6,286046973.3,N,0.0,0.0
1480063175.4,286046973.9,N,0.0,0.0
1480063195.2,286046971.0,N,0.0,0.0
1480063215.1,286046972.1,N,0.0,0.0
1480063216.0,286046972.1,N,0.0,0.0
1480063235.8,286046971.1,N,0.0,0.0
1480063255.7,286046972.3,N,0.0,0.0
1480063275.5,286046969.3,N,0.0,0.0
1480063295.3,286046969.3,N,0.0,0.0
1480063315.2,286046972.0,N,0.0,0.0
1480063335.0,286046969.5,N,0.0,0.0
1480063335.9,286046969.5,N,0.0,0.0
1480063355.8,286046970.0,N,0.0,0.0
1480063375.6,286046969.6,N,0.0,0.0
1480063395.4,286046970.1,N,0.0,0.0
1480063415.3,286046970.0,N,0.0,0.0
1480063435.1,286046970.5,N,0.0,0.0
1480063455.8,286046970.4,N,0.0,0.0
1480063475.7,286046968.3,N,0.0,0.0
1480063495.5,286046969.0,N,0.0,0.0
1480063515.4,286046966.6,N,0.0,0.0
1480063535.2,286046966.3,N,0.0,0.0
1480063555.0,286046966.8,N,0.0,0.0
1480063555.9,286046966.8,N,0.0,0.0
1480063575.8,286046966.8,N,0.0,0.0
1480063595.6,286046966.2,N,0.0,0.0
1480063615.5,286046969.1,N,0.0,0.0
1480063635.3,286046969.1,N,0.0,0.0
1480063655.1,286046966.6,N,0.0,0.0
1480063675.9,286046967.4,N,0.0,0.0
1480063695.7,286046964.9,N,0.0,0.0
1480063715.5,286046964.7,N,0.0,0.0
1480063735.4,286046965.1,N,0.0,0.0
1480063755.2,286046963.3,N,0.0,0.0
1480063775.1,286046962.9,N,0.0,0.0
1480063776.0,286046962.9,N,0.0,0.0
1480063795.8,286046963.0,N,0.0,0.0
1480063815.6,286046963.7,N,0.0,0.0
1480063835.5,286046961.9,N,0.0,0.0
1480063855.3,286046961.6,N,0.0,0.0
1480063875.1,286046964.3,N,0.0,0.0
1480063895.9,286046963.9,N,0.0,0.0
1480063915.7,286046961.7,N,0.0,0.0
1480063935.6,286046962.4,N,0.0,0.0
1480063955.4,286046959.7,N,0.0,0.0
1480063975.2,286046959.7,N,0.0,0.0
1480063995.1,286046962.6,N,0.0,0.0
1480063996.0,286046962.6,N,0.0,0.0
1480064015.8,286046959.8,N,0.0,0.0
1480064035.7,286046960.2,N,0.0,0.0
1480064055.5,286046959.7,N,0.0,0.0
1480064075.3,286046962.3,N,0.0,0.0
1480064095.2,286046959.7,N,0.0,0.0
1480064115.0,286046960.4,N,0.0,0.0
1480064115.9,286046960.4,N,0.0,0.0
1480064135.8,286046960.9,N,0.0,0.0
1480064155.6,286046958.1,N,0.0,0.0
1480064175.4,286046958.3,N,0.0,0.0
1480064195.3,286046958.3,N,0.0,0.0
1480064215.1,286046959.4,N,0.0,0.0
1480064235.8,286046956.5,N,0.0,0.0
1480064255.7,286046959.2,N,0.0,0.0
1480064275.5,286046957.0,N,0.0,0.0
1480064295.4,286046959.5,N,0.0,0.0
1480064315.2,286046959.1,N,0.0,0.0
1480064335.0,286046959.1,N,0.0,0.0
1480064335.9,286046959.1,N,0.0,0.0
1480064355.8,286046958.9,N,0.0,0.0
1480064375.6,286046959.5,N,0.0,0.0
1480064395.5,286046959.3,N,0.0,0.0
